Location: Home
(42.5358°N, 72.7383°W)
Time: 07:29:55
(UTC-05:00)

Envisat - Pass Details

Date: 24 October 2021
Orbit: 764 x 766 km, 98.2° (Epoch: 07 December)

Event Time Altitude Azimuth Distance (km) Brightness Sun altitude
Rises 18:14:24 0° 205° (SSW) 3,219 6.8 -4.4°
Reaches altitude 10° 18:17:20 10° 223° (SW) 2,298 6.4 -4.9°
Maximum altitude 18:20:55 19° 268° (W) 1,745 6.2 -5.6°
Drops below altitude 10° 18:24:33 10° 314° (NW) 2,310 6.0 -6.2°
Sets 18:27:31 0° 332° (NNW) 3,242 6.5 -6.8°
